GW0850 Weather Reports


time (UTC)temp
C
wind
direction
speed
KPH
gust
KPH
rain 1hr
cm
rain 24hr
cm
rain mn
cm
humidity
%
barometer
mb
20260504185639 27 291 3.2 14.5 0.00 0.00 0.00 29 1003.5
20260504184638 27 285 9.7 20.9 0.00 0.00 0.00 26 1003.8
20260504183636 27 303 4.8 25.7 0.00 0.00 0.00 28 1003.8
20260504182631 27 58 1.6 14.5 0.00 0.00 0.00 29 1003.7
20260504181631 27 279 6.4 24.1 0.00 0.00 0.00 29 1003.9
20260504180628 26 330 3.2 17.7 0.00 0.00 0.00 30 1003.7
20260504175629 26 274 4.8 16.1 0.00 0.00 0.00 31 1003.6
20260504174624 26 285 9.7 22.5 0.00 0.00 0.00 30 1003.8
20260504173623 26 4 1.6 19.3 0.00 0.00 0.00 30 1003.7
20260504172622 26 288 0.0 17.7 0.00 0.00 0.00 31 1003.9
20260504171621 26 237 11.3 12.9 0.00 0.00 0.00 30 1003.6
20260504170620 26 260 11.3 20.9 0.00 0.00 0.00 32 1003.8
20260504150554 20 265 0.0 6.4 0.00 0.00 0.00 51 1004.5
20260504140545 17 170 1.6 6.4 0.00 0.00 0.00 52 1005.0
20260504130527 15 158 3.2 3.2 0.00 0.00 0.00 58 1005.4
20260504110508 11 184 3.2 6.4 0.00 0.00 0.00 62 1005.7
20260504100448 11 161 4.8 6.4 0.00 0.00 0.00 62 1006.4
20260504081423 13 184 1.6 4.8 0.00 0.00 0.00 52 1007.3
20260504080422 12 184 1.6 4.8 0.00 0.00 0.00 53 1007.6
20260504070402 13 184 0.0 3.2 0.00 0.00 0.00 50 1008.7
20260504050328 12 85 0.0 0.0 0.00 0.00 0.00 52 1009.8
20260504045325 13 103 0.0 0.0 0.00 0.00 0.00 48 1009.8
20260504044320 14 274 0.0 0.0 0.00 0.00 0.00 44 1009.8
20260504043320 15 184 0.0 3.2 0.00 0.00 0.00 41 1009.7
20260504042320 15 184 1.6 3.2 0.00 0.00 0.00 41 1010.0
20260504041318 15 184 0.0 3.2 0.00 0.00 0.00 40 1009.9
20260504040318 15 199 1.6 4.8 0.00 0.00 0.00 41 1010.2
20260504035318 15 184 0.0 1.6 0.00 0.00 0.00 41 1010.4
20260504034312 15 184 0.0 1.6 0.00 0.00 0.00 40 1010.5
20260504033307 15 184 0.0 1.6 0.00 0.00 0.00 39 1010.8
20260504032306 16 192 0.0 4.8 0.00 0.00 0.00 38 1011.1
20260504031306 16 164 1.6 3.2 0.00 0.00 0.00 38 1010.7
20260504030306 16 184 0.0 3.2 0.00 0.00 0.00 38 1010.9
20260504025305 16 184 0.0 3.2 0.00 0.00 0.00 37 1011.0
20260504024304 16 184 0.0 1.6 0.00 0.00 0.00 37 1010.8
20260504023303 16 176 0.0 0.0 0.00 0.00 0.00 38 1010.9
20260504022301 16 199 0.0 1.6 0.00 0.00 0.00 35 1010.8
20260504021301 17 274 0.0 0.0 0.00 0.00 0.00 35 1010.9
20260504020301 17 166 0.0 4.8 0.00 0.00 0.00 33 1011.1
20260504015259 18 192 0.0 3.2 0.00 0.00 0.00 31 1010.8
20260504014257 18 198 0.0 3.2 0.00 0.00 0.00 31 1010.8
20260504013253 19 184 0.0 4.8 0.00 0.00 0.00 29 1010.9
20260504012253 19 191 0.0 4.8 0.00 0.00 0.00 29 1010.7
20260504011252 20 213 0.0 6.4 0.00 0.00 0.00 28 1010.5
20260504010249 20 304 0.0 4.8 0.00 0.00 0.00 29 1010.9
20260504005249 20 274 3.2 4.8 0.00 0.00 0.00 28 1010.8
20260504004244 21 253 0.0 9.7 0.00 0.00 0.00 25 1010.7
20260504003243 22 304 1.6 8.0 0.00 0.00 0.00 25 1010.8
20260504002242 23 258 0.0 9.7 0.00 0.00 0.00 23 1010.7
20260504001242 23 274 4.8 8.0 0.00 0.00 0.00 23 1010.7
20260504000242 23 274 3.2 9.7 0.00 0.00 0.00 21 1011.0
20260503235237 23 291 0.0 12.9 0.00 0.00 0.00 22 1010.8
20260503234233 24 237 6.4 12.9 0.00 0.00 0.00 21 1010.5
20260503233231 24 298 3.2 11.3 0.00 0.00 0.00 21 1010.5
20260503232231 25 262 0.0 12.9 0.00 0.00 0.00 20 1010.8
20260503231226 25 288 6.4 8.0 0.00 0.00 0.00 21 1010.9
20260503230226 25 192 0.0 11.3 0.00 0.00 0.00 21 1011.0
20260503225223 25 283 4.8 14.5 0.00 0.00 0.00 18 1011.0
20260503224218 24 4 8.0 8.0 0.00 0.00 0.00 20 1011.1
20260503223213 24 30 8.0 14.5 0.00 0.00 0.00 20 1010.9
20260503222213 24 57 6.4 14.5 0.00 0.00 0.00 20 1011.1
20260503221208 23 39 6.4 9.7 0.00 0.00 0.00 20 1011.1
20260503220207 23 352 0.0 11.3 0.00 0.00 0.00 22 1011.2
20260503215207 23 110 0.0 9.7 0.00 0.00 0.00 23 1011.3
20260503214207 23 4 0.0 6.4 0.00 0.00 0.00 25 1011.3
20260503213202 23 357 1.6 8.0 0.00 0.00 0.00 26 1011.3
20260503212202 24 12 11.3 14.5 0.00 0.00 0.00 23 1011.0
20260503211201 24 81 4.8 11.3 0.00 0.00 0.00 24 1011.1
20260503210200 24 358 1.6 12.9 0.00 0.00 0.00 24 1011.1
20260503205158 25 302 9.7 12.9 0.00 0.00 0.00 23 1011.2
20260503204158 25 217 8.0 11.3 0.00 0.00 0.00 24 1011.2
20260503203153 24 57 3.2 12.9 0.00 0.00 0.00 22 1011.4
20260503202153 25 177 4.8 12.9 0.00 0.00 0.00 24 1011.7
20260503201148 25 89 3.2 20.9 0.00 0.00 0.00 24 1011.8
20260503200147 24 205 4.8 14.5 0.00 0.00 0.00 25 1011.6
20260503195147 24 21 4.8 12.9 0.00 0.00 0.00 27 1011.7
20260503194145 25 290 3.2 12.9 0.00 0.00 0.00 27 1012.0
20260503193143 25 103 0.0 8.0 0.00 0.00 0.00 26 1011.9
20260503192140 23 303 9.7 17.7 0.00 0.00 0.00 27 1011.8
20260503191140 24 356 3.2 14.5 0.00 0.00 0.00 28 1011.8